Regional Weather Roundup
Issued by NWS

Home | Current Version | Previous Version | Graphics & Text | Print | Product List | Glossary On
Versions: 1 2 3 4 5 6 7 8 9 10 11 12 13 14 15 16 17 18 19 20 21 22 23 24 25 26 27 28 29 30 31 32 33 34 35 36 37 38 39 40 41 42 43 44 45 46 47 48 49 50
000
ASUS43 KMPX 261710
RWRMN
WEATHER ROUNDUP FOR MINNESOTA
NATIONAL WEATHER SERVICE TWIN CITIES/CHANHASSEN MN
1200 PM CDT MON JUN 26 2017


NOTE: "FAIR" INDICATES FEW OR NO CLOUDS BELOW 12,000 FEET WITH NO
SIGNIFICANT WEATHER AND/OR OBSTRUCTIONS TO VISIBILITY. N/A MEANS
CURRENT SKY AND/OR WEATHER CONDITIONS ARE NOT AVAILABLE.

MNZ060>063-068>070-261800-
   Twin Cities Metro

CITY           SKY/WX    TMP DP  RH WIND       PRES   REMARKS
TWIN CITIES    MOSUNNY   66  43  43 N14G20    30.18S
ST PAUL        PTSUNNY   65  44  46 NW15G26   30.18F
CRYSTAL        MOSUNNY   67  41  38 NW10G28   30.17F
BLAINE         PTSUNNY   66  45  45 NW14G20   30.17F
LAKEVILLE      SUNNY     64  43  45 NW12G20   30.18S
EDEN PRAIRIE   MOSUNNY   67  43  41 NW16G24   30.17F
SOUTH ST PAUL  MOSUNNY   66  42  41 N16       30.17F
LAKE ELMO      FAIR      64  46  52 NW9       30.18F
$$
MNZ001>005-007-008-013>017-022>024-027-028-261800-
   Northwest Minnesota

CITY           SKY/WX    TMP DP  RH WIND       PRES   REMARKS
BEMIDJI        MOSUNNY   65  42  42 W14G21    30.18F
HALLOCK        SUNNY     70  43  37 NW12G21   30.17F
ROSEAU         SUNNY     68  48  49 W12G17    30.15F
WARROAD        SUNNY     66  48  52 W12G21    30.14F
THIEF RVR FALL SUNNY     67  40  37 W13G22    30.20F
CROOKSTON      SUNNY     68  39  34 NW13G18   30.20F
FOSSTON        SUNNY     64  43  45 W14       30.21S
DETROIT LAKES  SUNNY     64  41  42 N10G16    30.23F
MOORHEAD       SUNNY     66  39  37 N5        30.23S
PARK RAPIDS    MOSUNNY   67  39  35 NW10      30.19F
MAHNOMEN       FAIR      65  43  44 NW12      30.21F
$$
MNZ006-009>011-018-025>026-261800-
   North Central Minnesota

CITY           SKY/WX    TMP DP  RH WIND       PRES   REMARKS
BAUDETTE       MOSUNNY   67  48  50 NW14G22   30.13F
FLAG ISLAND    SUNNY     64  45  48 NW14      30.11S
INTL FALLS     PTSUNNY   64  47  53 W10G20    30.10F
WASKISH        CLOUDY    66  46  48 W13       30.15F
BIG FORK       MOSUNNY   61  46  59 W3        30.16S
LONGVILLE      MOSUNNY   64  45  48 W9        30.18S
GRAND RAPIDS   PTSUNNY   64  45  49 NW15G21   30.17F
CRANE LAKE     PTSUNNY   63  46  55 W3        30.11F
ORR            SUNNY     64  45  48 NW12      30.09F
COOK           MOSUNNY   64  45  48 W13       30.11F
WALKER         PTSUNNY   62  43  49 NW8       30.18F
$$
MNZ012-019>021-037-261800-
   Northeast Minnesota

CITY           SKY/WX    TMP DP  RH WIND       PRES   REMARKS
DULUTH         PTSUNNY   64  45  49 NW12G20   30.11F
ELY            MOSUNNY   61  45  55 NW8G17    30.09F
HIBBING        MOSUNNY   62  44  51 NW15G25   30.12F
EVELETH        SUNNY     63  35  35 NW12      30.12F
DULUTH HARBOR  PTSUNNY   64  48  55 N3        30.12F
TWO HARBORS    MOSUNNY   68  50  52 NW7       30.08F
SILVER BAY     MOSUNNY   66  48  52 NW8       30.07F
GRAND MARAIS     N/A     58  46  64 NW6       30.04F
G MARAIS ARPRT MOSUNNY   61  43  51 NW9       30.07F
$$
MNZ029>031-032-039>041-046>048-054>057-064-261800-
   West Central Minnesota

CITY           SKY/WX    TMP DP  RH WIND       PRES   REMARKS
FERGUS FALLS   SUNNY     64  45  48 NW10      30.21F
WHEATON        SUNNY     64  43  45 W7        30.26F
MORRIS         SUNNY     66  45  45 NW7       30.23F
ALEXANDRIA     SUNNY     65  43  44 MISG      30.23F
ELBOW LAKE     FAIR      62  44  51 NW5       30.24F
WADENA         MOSUNNY   63  45  51 NW8       30.20F
GLENWOOD       MOSUNNY   64  45  48 N5        30.23S
APPLETON       SUNNY     64  37  36 N6        30.23F
BENSON         MOSUNNY   66  43  42 N10G16    30.25S
ORTONVILLE     SUNNY     64  39  39 N9        30.24F
MADISON        SUNNY     66  43  42 NE8       30.24S
WILLMAR        FAIR      64  43  45 N6        30.23F
$$
MNZ033>034-036-042>043-049>051-058-059-261800-
   Central Minnesota

CITY           SKY/WX    TMP DP  RH WIND       PRES   REMARKS
ST CLOUD       MOSUNNY   65  44  46 N9        30.19F
SAUK CENTRE    FAIR      64  42  45 W10       30.22S
PAYNESVILLE    MOSUNNY   65  40  39 N9        30.21F
AITKIN         PTSUNNY   63  45  51 NW7G16    30.16S
PINE RIVER     MOSUNNY   63  45  51 NW8       30.21F
BRAINERD       MOSUNNY   66  42  41 N14       30.19F
STAPLES        MOSUNNY   64  39  39 N10       30.20F
LONG PRAIRIE   FAIR      63  41  45 NW6       30.21F
LITTLE FALLS   MOSUNNY   63  39  42 NW7       30.20F
LITCHFIELD     SUNNY     64  46  52 N9        30.22S
BUFFALO        MOSUNNY   65  43  44 NW8       30.20F
MAPLE LAKE     MOSUNNY   66  46  48 N10G16    30.21S
HUTCHINSON     SUNNY     65  44  47 NW9       30.22S
$$
MNZ037-044-045-052-053-261800-
   East Central Minnesota

CITY           SKY/WX    TMP DP  RH WIND       PRES   REMARKS
PRINCETON      MOSUNNY   68  45  42 N9        30.18F
MORA           MOSUNNY   64  46  52 NW6       30.18F
CAMBRIDGE      SUNNY     66  48  52 NW7       30.15F
RUSH CITY      MOSUNNY   64  45  48 N8        30.16F
MOOSE LAKE     PTSUNNY   63  45  51 NW7       30.13F
HINCKLEY       PTSUNNY   64  45  48 NW13      30.16S
CLOQUET        PTSUNNY   64  43  45 NW10      30.13F
MCGREGOR       PTSUNNY   63  43  48 NW12G21   30.16F
$$
MNZ071>073-080-081-089-090-097-098-261800-
   Southwest Minnesota

CITY           SKY/WX    TMP DP  RH WIND       PRES   REMARKS
MONTEVIDEO     SUNNY     66  43  42 N8G16     30.24F
GRANITE FALLS  SUNNY     65  41  41 NW5       30.24F
CANBY          MOSUNNY   66  41  40 CALM      30.25F
MARSHALL       MOSUNNY   64  42  44 N13       30.23F
REDWOOD FALLS  SUNNY     66  40  38 VRB7      30.22S
OLIVIA         SUNNY     64  41  42 N8        30.21F
PIPESTONE      SUNNY     64  36  34 NE10G17   30.24S
WINDOM         SUNNY     64  39  39 N12G17    30.22F
WORTHINGTON    MOSUNNY   63  42  46 N12       30.24S
JACKSON        SUNNY     63  41  45 NW13      30.23S
TRACY          MOSUNNY   64  45  49 N10G16    30.23F
SLAYTON        SUNNY     62  42  48 N10G17    30.24F
$$
MNZ065>067-074>077-082>085-091>093-261800-
   South Central Minnesota

CITY           SKY/WX    TMP DP  RH WIND       PRES   REMARKS
MANKATO        SUNNY     63  42  46 N13       30.20
NEW ULM        SUNNY     64  39  39 NE7       30.21S
ST JAMES       SUNNY     64  43  45 NW8       30.22F
FAIRMONT       SUNNY     64  41  42 NW12G17   30.21F
GLENCOE        MOSUNNY   64  46  51 NW7       30.20S
FARIBAULT      MOSUNNY   64  43  45 N10       30.19F
OWATONNA       MOSUNNY   64  45  48 NW10      30.19S
WASECA         SUNNY     63  43  48 NW12      30.21S
ALBERT LEA     MOSUNNY   64  41  42 N12       30.19F
$$
MNZ078>079-086>088-094>096-261800-
   Southeast Minnesota

CITY           SKY/WX    TMP DP  RH WIND       PRES   REMARKS
ROCHESTER      PTSUNNY   63  45  51 MISG      30.19R
RED WING       MOSUNNY   64  39  39 N7        30.16S
STANTON        PTSUNNY   64  44  49 NW14      30.17S
DODGE CENTER   MOSUNNY   63  43  48 N10G17    30.19S
WINONA         SUNNY     63  45  51 NW13G22   30.16F
AUSTIN         MOSUNNY   63  45  51 N9G16     30.18F
PRESTON        MOSUNNY   61  43  50 N8G16     30.18S
$$
ABBREVIATIONS USED IN REMARKS
   TC - TEMPERATURES IN CELSIUS
  WCI - WIND CHILL INDEX
   HX - HEAT INDEX
  VSB - VISIBILITY
$$




USA.gov is the U.S. government's official web portal to all federal, state and local government web resources and services.